Date,TemperatureHighF,TemperatureAvgF,TemperatureLowF,DewpointHighF,DewpointAvgF,DewpointLowF,HumidityHigh,HumidityAvg,HumidityLow,PressureMaxIn,PressureMinIn,WindSpeedMaxMPH,WindSpeedAvgMPH,GustSpeedMaxMPH,PrecipitationSumIn
2013-1-1,72,63,54,67,61,53,98,94,82,30.10,29.93,8,3,20,0.09
2013-1-2,54,49,43,53,46,42,97,91,84,30.21,30.02,4,2,14,0.09
2013-1-3,48,40,33,42,36,29,97,86,63,30.38,30.20,5,2,11,0.53
2013-1-4,56,40,32,32,29,28,88,69,36,30.45,30.35,4,1,8,0.01
2013-1-5,51,47,40,40,36,32,79,68,58,30.38,30.25,2,0,6,0.00
2013-1-6,52,46,40,49,43,39,97,90,73,30.30,30.20,2,1,8,0.11
2013-1-7,62,48,35,43,39,34,97,75,41,30.34,30.20,4,1,10,0.01
2013-1-8,67,57,45,60,51,40,90,82,74,30.26,30.14,3,1,8,0.01
2013-1-9,69,65,60,67,63,57,98,93,87,30.25,30.16,5,2,11,0.00
2013-1-10,68,65,61,67,64,60,98,97,95,30.24,30.00,6,2,22,0.29
2013-1-11,78,70,61,70,67,60,98,90,67,30.15,30.06,8,2,18,0.04
2013-1-12,76,71,68,71,68,67,98,91,78,30.11,29.98,8,2,14,0.01
2013-1-13,76,71,59,71,69,58,98,92,84,30.04,29.94,9,4,21,0.26
2013-1-14,59,50,42,58,49,41,98,98,97,30.14,30.03,6,2,14,0.30
2013-1-15,56,51,42,56,51,41,99,99,98,30.09,29.95,3,1,7,0.07
2013-1-16,53,46,40,53,45,39,99,96,93,30.07,29.96,7,3,14,0.16
2013-1-17,51,43,37,39,37,35,97,79,59,30.36,30.06,11,5,25,0.03
2013-1-18,39,36,35,36,34,33,97,92,87,30.48,30.38,4,1,9,0.01
2013-1-19,64,47,34,49,41,33,97,80,53,30.41,30.24,4,1,8,0.00
2013-1-20,67,50,37,50,44,36,98,83,47,30.29,30.14,4,1,9,0.00
2013-1-21,66,52,41,48,43,39,98,75,45,30.22,30.14,7,1,13,0.01
2013-1-22,61,46,38,41,34,27,93,65,40,30.38,30.22,5,1,9,0.01
2013-1-23,68,51,35,51,44,34,97,79,53,30.41,30.30,9,2,13,0.00
2013-1-24,52,47,42,49,45,41,98,95,88,30.33,30.29,4,1,5,0.00
2013-1-25,70,58,47,59,54,46,98,86,62,30.28,30.16,13,3,22,0.00
2013-1-26,73,62,54,62,58,53,98,89,62,30.27,30.19,6,1,9,0.00
2013-1-27,72,60,50,62,56,49,98,91,68,30.32,30.24,5,1,9,0.01
2013-1-28,76,65,55,65,61,54,99,90,66,30.29,30.16,4,1,12,0.01
2013-1-29,77,71,66,71,69,65,97,93,81,30.16,29.88,8,4,20,0.11
2013-1-30,74,70,53,71,68,52,97,93,88,29.87,29.71,18,8,37,0.59
2013-1-31,59,52,34,37,30,26,92,46,30,30.29,30.23,7,3,14,0.08
2013-2-1,61,48,36,40,35,30,96,65,37,30.42,30.32,6,2,12,0.00
2013-2-2,66,49,32,52,39,25,92,70,41,30.37,30.19,10,2,16,0.00
2013-2-3,63,51,42,52,44,37,98,81,38,30.27,30.14,5,1,9,0.00
2013-2-4,63,52,41,53,42,34,95,71,50,30.14,30.00,3,0,5,0.02
2013-2-5,68,59,52,63,57,51,98,94,80,30.05,29.96,4,1,8,0.48
2013-2-6,73,60,50,61,57,49,99,88,61,30.16,30.02,4,1,9,0.03
2013-2-7,74,63,54,62,59,52,98,88,64,30.04,29.83,9,2,20,1.64
2013-2-8,57,53,48,55,51,47,99,94,81,30.17,29.95,5,1,14,0.37
2013-2-9,67,54,42,56,48,40,96,81,61,30.27,30.13,7,2,9,0.00
2013-2-10,72,66,57,70,64,54,97,92,81,30.11,29.96,8,4,22,0.13
2013-2-11,70,64,56,69,62,55,99,97,94,30.12,30.00,9,2,13,0.54
2013-2-12,70,59,55,69,58,54,98,97,95,30.07,29.78,5,2,11,0.54
2013-2-13,69,55,41,68,53,40,97,93,87,30.08,29.78,8,3,15,0.30
2013-2-14,60,45,37,45,40,36,98,84,49,30.17,30.06,4,1,10,0.01
2013-2-15,66,47,35,47,38,34,98,77,33,30.19,30.06,4,1,9,0.01
2013-2-16,50,43,29,40,29,16,87,61,26,30.29,30.11,10,3,20,0.00
2013-2-17,56,36,26,34,28,23,94,76,40,30.39,30.26,6,1,13,0.00
2013-2-18,61,50,40,55,44,34,89,80,68,30.28,30.03,6,2,17,0.00
2013-2-19,65,59,45,62,45,26,97,66,24,30.22,29.97,12,5,20,0.88
2013-2-20,60,47,38,35,28,22,75,52,28,30.28,30.09,5,1,9,0.21
2013-2-21,68,55,39,66,46,31,93,72,56,30.09,29.90,6,2,15,0.00
2013-2-22,71,65,59,68,60,51,98,87,55,29.99,29.87,8,2,13,0.89
2013-2-23,59,57,54,58,56,51,98,96,91,29.96,29.79,5,2,13,1.09
2013-2-24,70,56,45,57,51,44,98,85,61,30.01,29.90,4,1,8,0.01
2013-3-10,66,65,65,62,62,61,89,88,85,29.97,29.92,7,4,18,0.00
2013-3-11,68,56,41,66,53,40,97,90,75,30.00,29.85,11,4,24,0.14
2013-3-12,63,47,38,42,38,35,98,74,40,30.20,30.00,10,3,19,0.07
2013-3-13,65,54,39,41,31,20,89,48,18,30.37,30.20,10,4,23,0.00
2013-3-14,66,50,37,41,29,19,81,47,22,30.46,30.30,6,2,13,0.00
2013-3-15,73,56,39,49,43,38,97,68,32,30.32,30.15,9,2,18,0.00
2013-3-16,75,62,45,58,53,44,98,76,43,30.15,29.99,12,4,20,0.00
2013-3-17,73,61,53,63,58,52,98,91,61,30.02,29.90,4,1,11,0.00
2013-3-18,70,65,61,68,63,59,96,93,80,29.92,29.84,4,1,16,0.03
2013-3-19,78,64,54,60,51,41,96,65,34,30.05,29.89,7,2,15,0.04
2013-3-20,65,57,43,42,37,28,75,48,26,30.13,29.99,9,2,17,0.00
2013-3-21,68,52,38,43,33,26,88,53,22,30.09,29.91,5,1,10,0.00
2013-3-22,61,54,49,56,48,41,86,81,73,29.93,29.87,2,1,8,0.02
2013-3-23,74,67,61,70,63,54,98,88,77,29.89,29.59,8,1,20,0.10
2013-3-24,78,65,49,70,56,33,98,73,38,29.95,29.58,11,5,23,0.07
2013-3-25,56,44,37,33,28,20,73,55,25,30.23,30.00,9,4,19,0.00
2013-3-26,43,37,31,30,28,26,83,69,52,30.37,30.23,7,2,18,0.00
2013-3-27,44,35,28,37,30,27,95,84,61,30.44,30.32,1,0,4,0.00
2013-3-28,71,52,35,43,37,29,98,64,22,30.37,30.24,9,2,15,0.00
2013-3-29,72,56,38,55,45,37,97,73,32,30.35,30.21,10,2,18,0.00
2013-3-30,75,62,49,60,54,48,98,77,43,30.22,30.05,14,4,23,0.00
2013-3-31,74,64,59,64,61,58,98,91,70,29.98,29.89,10,3,20,0.44
2013-4-1,73,58,53,59,56,52,98,93,55,30.09,29.93,4,1,9,0.44
2013-4-2,80,63,48,58,50,46,98,69,30,30.14,30.01,6,1,13,0.00
2013-4-3,61,57,53,57,54,50,97,90,82,30.03,29.94,5,1,12,1.25
2013-4-4,68,58,52,60,54,50,98,89,74,29.98,29.89,7,2,13,0.08
2013-4-5,69,55,47,52,48,45,95,79,49,30.13,29.97,8,4,17,0.00
2013-4-6,74,58,41,52,47,40,98,73,35,30.18,30.10,7,2,16,0.00
2013-4-7,76,61,46,60,55,45,98,81,53,30.15,30.04,7,1,12,0.00
2013-4-8,80,70,58,68,64,57,99,84,61,30.08,30.01,7,2,17,0.00
2013-4-9,81,73,68,71,68,66,98,87,61,30.09,29.97,7,3,15,0.00
2013-4-10,83,73,65,71,68,64,98,85,65,30.04,29.89,7,2,18,0.00
2013-4-11,74,69,58,72,67,56,97,93,91,29.89,29.75,5,3,13,1.21
2013-4-12,74,59,49,56,50,46,95,77,39,29.99,29.82,7,3,13,0.39
2013-4-13,82,64,46,59,50,45,97,67,29,30.06,29.91,4,1,10,0.00
2013-4-14,66,61,56,65,60,55,99,95,81,29.99,29.77,13,1,25,1.57
2013-4-15,79,70,63,74,68,63,99,92,81,30.05,29.83,4,1,9,0.16
2013-4-16,84,75,68,74,70,67,98,87,68,30.13,30.03,6,2,13,0.00
2013-4-17,84,74,66,75,69,65,98,87,70,30.13,30.01,5,1,11,0.00
2013-4-18,81,73,65,73,69,64,98,89,74,30.02,29.87,8,2,18,0.01
2013-4-19,75,75,75,73,72,72,93,91,91,29.87,29.82,8,6,18,0.01
2013-4-22,64,62,60,62,61,59,97,95,92,30.11,30.09,0,0,0,0.00
2013-4-23,79,68,56,67,62,55,99,85,64,30.12,30.04,9,2,15,0.00
2013-4-24,73,66,60,69,65,59,99,95,83,30.17,30.02,5,1,15,0.34
2013-4-25,75,62,54,60,55,49,98,80,53,30.30,30.17,5,2,14,0.02
2013-4-26,81,66,52,60,52,45,92,65,40,30.32,30.22,5,1,9,0.01
2013-4-27,82,72,58,67,64,57,98,78,53,30.24,30.06,9,2,15,0.00
2013-4-28,80,71,66,71,68,64,99,90,63,30.08,30.02,9,2,23,0.00
2013-4-29,82,72,63,68,65,62,98,79,55,30.01,29.90,4,1,9,0.01
2013-4-30,81,70,62,71,66,61,99,88,67,29.96,29.90,7,1,15,0.44
2013-5-1,73,68,63,71,67,62,99,97,92,29.95,29.85,8,2,17,8.43
2013-5-2,67,63,62,66,63,62,99,99,98,29.96,29.88,2,1,8,9.68
2013-5-3,65,55,48,64,54,47,98,97,95,29.99,29.91,8,4,18,3.75
2013-5-4,69,55,43,49,43,36,97,69,32,30.00,29.89,9,4,21,0.47
2013-5-5,64,57,47,55,47,42,95,71,46,30.02,29.85,9,3,18,0.00
2013-5-6,71,58,46,56,50,44,95,76,49,30.03,29.92,7,2,15,0.00
2013-5-7,75,64,51,62,57,50,98,81,54,30.05,29.97,6,1,12,0.00
2013-5-8,83,69,55,64,60,54,99,77,43,30.12,30.02,7,2,12,0.00
2013-5-9,82,70,58,69,62,57,98,79,46,30.16,30.06,8,2,13,0.00
2013-5-10,68,66,64,66,64,63,98,96,93,30.08,29.91,6,1,11,0.52
2013-5-11,75,67,61,69,64,-100,99,92,79,30.04,29.96,3,1,8,0.31
2013-5-12,78,69,60,65,60,54,99,75,53,30.14,30.02,5,2,12,0.01
2013-5-13,79,64,52,57,49,39,93,62,30,30.29,30.14,6,1,12,0.01
2013-5-14,84,68,52,61,55,51,98,70,35,30.29,30.17,8,2,14,0.00
2013-5-15,85,70,57,65,59,53,98,71,42,30.23,30.06,7,1,13,0.00
2013-5-16,64,63,63,61,60,59,92,89,85,30.07,30.03,0,0,0,0.00
2013-5-19,78,74,69,74,72,69,99,96,89,30.06,30.04,3,1,7,0.00
2013-5-21,74,71,69,71,69,68,97,94,88,29.96,29.91,1,0,7,0.00
2013-5-22,75,69,65,73,68,64,99,97,85,29.99,29.93,0,0,2,0.05
2013-5-23,90,79,65,73,68,60,99,73,38,30.07,29.97,5,1,9,0.05
2013-5-24,88,78,66,72,67,58,98,72,48,30.18,30.04,8,2,15,0.00
2013-5-25,88,72,60,64,56,48,91,60,28,30.26,30.15,3,1,7,0.00
2013-5-26,88,73,60,69,62,58,98,72,39,30.22,30.13,7,1,12,0.00
2013-5-27,86,76,65,71,66,54,98,74,35,30.17,30.08,8,2,15,0.00
2013-5-28,87,74,60,74,67,59,98,82,52,30.11,30.04,8,2,17,0.00
2013-5-29,88,77,69,75,71,68,99,84,61,30.07,30.01,6,2,16,0.00
2013-5-30,87,78,71,75,72,70,98,83,63,30.07,30.00,6,2,15,0.00
2013-5-31,86,78,72,76,73,70,97,85,72,30.06,29.98,7,2,15,0.00
2013-6-1,75,73,71,74,72,70,98,97,95,30.00,29.97,2,0,4,0.00
2013-6-2,92,79,70,75,71,66,99,79,46,30.01,29.86,6,2,14,0.00
2013-6-3,91,78,68,77,73,67,98,87,62,29.94,29.85,7,1,12,0.53
2013-6-4,93,80,71,79,74,71,99,84,50,29.96,29.89,4,1,9,0.54
2013-6-5,87,78,68,79,74,67,99,87,70,29.96,29.85,5,1,15,0.18
2013-6-6,89,74,64,73,69,63,99,87,58,29.89,29.75,5,1,21,0.24
2013-6-7,86,74,67,74,70,66,99,87,61,29.91,29.78,4,1,11,0.14
2013-6-8,88,78,68,76,72,67,98,84,57,30.05,29.90,9,2,17,0.17
2013-6-9,81,74,69,76,72,68,98,93,79,30.03,29.93,6,1,13,0.25
2013-6-10,84,76,71,78,74,69,99,93,79,30.06,29.98,5,1,28,0.92
2013-6-11,94,82,73,79,75,69,99,83,46,30.11,30.01,5,1,12,0.17
2013-6-12,78,76,74,76,74,73,97,95,93,30.08,30.05,2,0,4,0.00
2013-6-15,94,86,71,77,73,66,96,67,48,30.03,29.96,6,2,9,0.00
2013-6-16,94,83,74,79,76,71,98,82,47,30.06,29.98,8,1,12,0.00
2013-6-17,92,83,74,78,76,73,97,80,55,30.03,29.95,9,3,18,0.00
2013-6-18,91,82,72,76,74,71,97,77,55,30.02,29.89,8,2,14,0.53
2013-6-19,85,77,70,76,72,69,99,88,68,30.05,29.94,4,1,9,0.53
2013-6-20,90,78,71,77,73,70,98,86,59,30.11,30.02,4,1,11,0.00
2013-6-22,91,84,74,77,74,70,97,74,51,30.13,30.01,5,1,11,0.19
2013-6-23,90,78,72,78,74,71,99,90,61,30.10,30.03,4,0,11,0.02
2013-6-24,87,77,72,80,74,71,98,91,74,30.19,30.09,7,0,14,0.52
2013-6-25,89,80,71,79,75,71,99,85,66,30.14,30.03,8,1,11,0.03
2013-6-26,92,81,73,81,76,72,98,86,59,30.09,29.98,5,1,12,0.84
2013-6-27,93,84,74,79,77,73,98,81,56,30.03,29.92,4,1,10,0.12
2013-6-28,96,85,76,79,77,75,98,79,56,29.94,29.77,5,2,13,0.00
2013-6-29,93,82,72,78,74,69,98,79,47,29.82,29.68,6,2,11,0.50
2013-6-30,91,79,71,76,71,63,99,80,39,29.79,29.72,3,1,10,0.01
2013-7-1,88,78,69,71,68,65,92,74,48,29.92,29.79,5,2,12,0.01
2013-7-2,90,77,67,74,69,66,97,79,47,30.01,29.90,5,1,9,0.00
2013-7-3,85,74,72,76,72,71,98,93,71,30.04,29.96,5,1,9,0.94
2013-7-4,89,77,71,78,74,70,99,91,67,30.02,29.93,4,1,10,1.66
2013-7-5,78,74,72,76,74,71,99,97,92,30.09,29.99,5,1,11,0.32
2013-7-6,79,73,71,76,72,71,99,97,88,30.06,30.00,2,0,7,1.34
2013-7-7,81,75,73,77,74,72,99,97,86,30.14,30.02,5,0,17,1.15
2013-7-8,88,76,72,80,73,-100,99,94,73,30.19,30.09,5,1,10,0.78
2013-7-9,91,80,70,79,74,70,99,84,57,30.21,30.09,7,1,14,0.01
2013-7-10,89,77,73,79,73,-100,98,90,68,30.13,29.98,5,1,13,0.23
2013-7-11,76,75,74,76,74,73,99,98,98,30.00,29.98,2,0,3,0.23
2013-7-12,77,72,70,73,71,69,98,94,84,29.92,29.87,1,0,4,1.15
2013-7-13,92,75,69,80,72,68,99,92,63,29.99,29.88,3,0,7,0.11
2013-7-14,93,78,69,77,71,68,98,83,51,30.04,29.92,3,1,6,0.42
2013-7-15,88,77,72,79,74,71,98,92,70,30.14,30.03,4,1,11,0.59
2013-7-16,89,79,72,78,74,70,97,86,69,30.19,30.11,4,1,12,0.01
2013-7-22,86,77,72,80,74,70,94,91,79,30.08,30.01,10,2,20,0.93
2013-7-23,92,81,72,79,75,70,94,84,62,30.06,29.92,6,2,13,0.38
2013-7-24,90,81,73,80,76,71,95,86,65,29.98,29.88,8,2,19,0.01
2013-7-25,90,80,72,78,74,70,94,83,62,30.03,29.89,7,1,14,0.01
2013-7-26,92,80,70,76,72,68,94,79,47,30.07,29.97,5,1,11,0.00
2013-7-27,82,76,72,77,73,70,95,89,78,29.99,29.89,5,1,13,0.29
2013-7-28,89,79,73,78,74,71,94,86,69,30.01,29.87,5,1,11,0.32
2013-7-29,92,81,73,80,76,71,94,85,64,30.12,29.99,4,1,8,0.00
2013-7-30,92,83,74,80,77,72,94,82,62,30.16,30.06,7,1,12,0.00
2013-7-31,92,82,77,81,77,74,94,84,66,30.11,29.99,5,1,9,0.00
2013-8-1,91,79,72,81,75,70,96,90,67,30.02,29.92,7,1,13,0.95
2013-8-2,95,81,70,79,74,68,95,82,51,30.03,29.93,3,0,6,0.87
2013-8-3,94,83,73,81,75,70,95,80,49,30.08,30.00,4,1,8,0.01
2013-8-4,95,83,75,80,76,73,95,82,54,30.09,29.98,5,1,10,0.03
2013-8-5,94,80,74,80,74,72,95,85,58,30.05,29.95,4,1,10,1.19
2013-8-6,95,82,73,81,76,71,95,82,56,30.04,29.91,6,1,11,1.11
2013-8-7,95,81,72,82,76,70,95,85,60,30.00,29.92,8,1,17,0.66
2013-8-8,93,83,76,82,78,74,94,84,64,29.99,29.91,6,1,11,0.00
2013-8-9,89,80,77,81,76,74,94,89,73,30.06,29.95,6,0,16,0.57
2013-8-10,91,81,75,81,76,73,94,84,66,30.11,30.03,3,1,8,0.01
2013-8-11,90,80,74,79,75,72,92,86,66,30.14,30.08,3,0,7,0.02
2013-8-12,86,79,74,79,75,71,90,86,78,30.13,30.03,4,0,7,0.06
2013-8-13,90,77,72,79,71,-100,89,84,68,30.05,29.95,6,1,16,0.99
2013-8-14,82,75,72,74,69,-100,87,82,76,29.99,29.92,8,1,14,0.02
2013-8-15,75,73,72,70,69,68,86,86,85,29.96,29.92,0,0,3,0.00
2013-8-17,78,73,72,71,66,-100,86,83,80,30.02,29.94,2,0,5,0.30
2013-8-18,77,73,70,71,67,64,85,83,81,30.05,29.97,5,1,19,1.93
2013-8-19,89,75,73,79,61,-100,86,81,69,30.06,29.98,5,1,13,0.06
2013-8-20,89,76,70,78,69,-100,85,82,68,30.09,30.01,4,0,7,0.02
2013-8-21,90,78,72,79,72,67,84,80,66,30.15,30.06,2,0,6,0.01
2013-8-22,92,80,70,78,72,64,84,77,59,30.12,29.97,3,1,8,0.01
2013-9-1,93,78,75,79,71,68,82,79,62,29.94,29.89,5,0,12,0.91
2013-9-2,93,81,74,81,73,67,82,76,60,30.00,29.89,4,1,9,0.01
2013-9-3,95,80,71,81,71,64,79,74,56,30.00,29.88,6,1,15,0.33
2013-9-4,91,77,70,80,68,-100,97,79,67,30.09,29.97,7,1,12,0.17
2013-9-5,92,79,71,78,73,70,98,85,55,30.13,30.04,3,0,8,0.15
2013-9-6,92,80,71,77,72,69,98,80,51,30.11,30.00,2,0,6,0.00
2013-9-7,91,75,68,76,68,-100,98,84,47,30.07,29.98,2,0,4,0.00
2013-9-8,93,79,69,75,71,68,98,80,48,30.02,29.94,2,0,6,0.00
2013-9-9,93,80,70,76,72,69,98,79,47,30.06,29.98,4,1,7,0.00
2013-9-10,92,79,71,76,72,70,98,84,52,30.14,30.04,4,0,11,0.04
2013-9-11,91,79,70,76,71,68,99,81,47,30.14,30.04,4,0,6,0.05
2013-9-12,93,80,69,76,71,68,98,78,47,30.07,29.92,3,1,7,0.00
2013-9-13,73,71,71,72,70,70,98,97,96,29.96,29.91,0,0,0,0.00
2013-9-19,89,81,72,74,71,68,94,74,55,30.09,30.00,5,2,11,0.00
2013-9-22,69,69,69,66,65,64,89,87,85,29.82,29.82,1,0,4,0.08
2013-9-23,80,73,64,77,71,61,98,95,87,29.89,29.82,5,0,7,0.19
2013-9-24,87,76,70,79,74,69,99,93,72,29.90,29.78,4,1,11,1.07
2013-9-25,91,77,70,74,71,66,99,83,50,29.85,29.77,4,1,8,1.02
2013-9-26,85,73,67,75,70,67,99,91,62,29.96,29.82,3,0,7,0.00
2013-9-27,74,70,69,70,68,67,96,92,79,30.01,29.96,1,0,3,0.00
2013-9-28,85,75,61,67,64,60,97,71,45,30.10,30.01,3,1,6,0.00
2013-9-29,81,73,62,68,65,60,94,77,58,30.07,29.97,2,0,10,0.00
2013-9-30,76,70,67,70,68,66,98,92,81,30.01,29.95,2,0,5,0.05
2013-10-1,76,73,71,72,70,69,96,92,87,30.05,30.01,0,0,1,0.00
2013-10-2,82,74,71,75,72,70,98,93,77,30.09,30.00,3,0,7,0.08
2013-10-4,89,76,71,78,74,71,99,92,69,30.06,30.00,4,0,8,0.36
2013-10-5,87,77,72,77,74,72,100,92,65,30.04,29.95,5,1,14,0.02
2013-10-6,82,73,66,76,71,63,99,95,83,29.95,29.80,6,1,14,2.02
2013-10-7,75,66,59,63,55,49,89,71,43,30.03,29.89,8,4,18,0.08
2013-10-8,79,63,52,63,56,51,97,79,49,30.03,29.98,6,1,10,0.00
2013-10-9,82,68,61,72,64,58,98,88,70,30.09,30.01,2,0,7,0.00
2013-10-10,83,71,65,71,66,64,99,88,60,30.14,30.01,4,0,6,0.00
2013-10-11,86,72,62,72,66,62,99,85,49,30.08,29.98,4,0,9,0.00
2013-10-12,86,72,63,72,65,-100,99,82,53,30.11,30.01,4,1,9,0.00
2013-10-13,87,74,66,74,68,65,99,83,54,30.17,30.07,4,1,9,0.00
2013-10-14,86,72,63,71,65,61,99,83,44,30.13,30.02,3,0,6,0.01
2013-10-15,84,72,63,70,66,62,97,83,54,30.08,29.97,2,0,7,0.01
2013-10-16,84,73,64,71,67,63,99,83,57,30.04,29.93,5,1,12,0.00
2013-10-17,81,74,66,74,70,63,96,87,73,29.99,29.91,6,2,13,0.03
2013-10-18,76,67,61,63,60,57,96,80,53,30.05,29.93,6,2,11,0.01
2013-10-19,64,62,61,60,59,58,95,90,85,29.99,29.92,6,1,13,0.01
2013-10-22,78,69,60,65,58,52,97,71,42,29.99,29.90,5,2,10,0.00
2013-10-23,72,60,48,56,48,40,97,70,33,30.14,29.98,8,2,16,0.00
2013-10-24,77,59,43,54,48,42,98,74,38,30.24,30.12,5,1,10,0.00
2013-10-25,66,57,45,53,41,37,95,59,36,30.40,30.22,7,2,16,0.00
2013-10-26,74,53,39,51,40,-100,94,68,30,30.33,30.18,2,0,6,0.00
2013-10-27,75,59,45,61,52,44,98,81,47,30.19,30.09,5,0,8,0.00
2013-10-28,80,65,55,65,58,-100,98,83,54,30.22,30.11,5,1,11,0.00
2013-10-29,80,66,56,66,61,55,99,85,56,30.27,30.19,4,1,8,0.00
2013-10-30,79,68,59,69,64,58,99,89,68,30.23,30.08,5,1,9,0.01
2013-10-31,79,73,68,72,69,67,98,88,70,30.09,29.85,9,2,19,0.17
2013-11-1,78,68,55,72,63,53,98,85,51,29.93,29.79,6,2,12,0.25
2013-11-2,73,60,48,55,47,-100,99,69,42,30.15,29.91,6,2,13,0.01
2013-11-3,60,49,42,47,44,41,97,83,63,30.24,30.14,5,2,10,0.00
2013-11-6,67,67,67,66,66,66,96,95,95,30.10,30.09,0,0,2,0.00
2013-11-7,69,59,48,68,53,38,98,82,62,30.28,30.03,8,4,20,0.50
2013-11-8,65,52,42,42,38,34,93,62,34,30.33,30.19,5,2,13,0.01
2013-11-9,73,56,42,59,48,-100,93,78,59,30.27,30.18,3,0,7,0.00
2013-11-10,75,63,55,59,54,52,90,75,48,30.28,30.18,2,1,8,0.00
2013-11-11,55,53,51,52,51,50,97,94,90,30.20,30.18,0,0,0,0.00
2013-11-12,69,52,47,53,48,46,99,89,53,30.26,30.17,6,1,11,0.00
2013-11-13,36,34,33,30,29,27,88,83,77,30.45,30.42,0,0,0,0.00
2013-11-14,58,45,29,48,38,27,96,79,68,30.42,30.16,3,1,7,0.00
2013-11-15,70,60,55,68,57,48,98,91,70,30.16,30.02,6,1,12,0.24
2013-11-16,68,64,61,67,62,-100,99,96,94,30.10,30.01,3,1,8,0.02
2013-11-17,78,72,67,73,71,66,99,95,82,30.02,29.92,7,3,15,0.06
2013-11-18,78,68,57,73,59,40,99,75,41,30.09,29.96,4,1,17,0.06
2013-11-19,63,54,42,43,38,35,79,57,38,30.16,30.04,6,2,13,0.02
2013-11-20,73,54,38,57,47,35,98,79,51,30.16,30.05,3,0,6,0.00
2013-11-21,70,60,53,64,58,51,97,91,80,30.25,30.16,3,1,9,0.00
2013-11-22,78,68,59,70,65,58,99,92,76,30.23,30.14,4,1,9,0.00
2013-11-23,66,58,48,65,54,-100,97,90,76,30.30,30.17,7,3,17,0.00
2013-11-24,53,45,39,42,30,25,80,56,36,30.40,30.29,9,3,17,0.00
2013-11-25,57,48,37,56,41,26,98,77,59,30.33,29.89,5,2,14,0.09
2013-11-26,62,50,43,62,49,42,99,96,91,29.94,29.73,9,4,23,1.81
2013-11-27,47,39,28,42,31,26,97,76,46,30.40,29.94,10,5,24,0.40
2013-11-28,48,33,25,34,26,22,97,79,37,30.49,30.38,4,1,9,0.00
2013-11-29,61,40,26,34,28,23,98,70,24,30.54,30.42,4,1,8,0.00
2013-11-30,68,45,30,48,36,-100,98,78,39,30.45,30.27,3,0,5,0.00
2013-12-1,68,53,37,53,46,36,99,81,50,30.29,30.02,4,0,11,0.01
2013-12-2,73,59,45,59,52,45,99,81,50,30.02,29.80,6,1,11,0.01
2013-12-3,73,66,60,67,64,59,99,93,80,29.87,29.77,10,3,18,0.25
2013-12-4,78,72,66,72,69,65,99,93,79,29.98,29.85,11,4,18,0.02
2013-12-5,78,74,71,74,72,70,99,95,86,30.04,29.96,9,4,18,0.08
2013-12-6,79,70,49,73,68,48,98,93,81,30.18,29.98,15,5,37,1.43
2013-12-7,48,41,40,47,39,-100,99,96,95,30.32,30.18,8,3,15,0.21
2013-12-8,64,51,41,64,50,41,99,98,94,30.24,30.05,3,0,6,0.01
2013-12-9,67,60,54,67,58,54,100,95,78,30.15,30.04,5,1,10,0.06
2013-12-10,56,44,35,55,41,33,99,89,71,30.36,30.04,9,3,19,0.04
2013-12-11,36,35,35,34,33,33,94,92,91,30.35,30.33,0,0,5,0.04
2013-12-13,53,53,52,47,46,44,80,77,72,30.13,30.03,2,1,7,0.00
2013-12-14,75,63,50,67,57,-100,98,86,69,30.03,29.83,9,2,22,0.10
2013-12-15,50,42,30,47,37,29,98,82,67,30.31,30.02,11,4,21,0.10
2013-12-16,60,40,28,42,34,28,98,84,39,30.36,30.25,4,1,10,0.00
2013-12-17,65,45,32,43,36,32,99,76,34,30.35,30.23,5,1,9,0.00
2013-12-18,67,49,35,41,38,34,98,73,34,30.39,30.26,2,0,7,0.00
2013-12-19,71,57,38,59,52,37,98,85,63,30.25,30.08,5,1,11,0.00
2013-12-20,75,66,57,69,64,56,99,92,78,30.13,30.00,6,2,14,0.01
2013-12-21,76,73,70,73,69,-100,96,91,88,30.00,29.85,10,5,23,0.02
2013-12-22,74,59,53,72,58,53,99,98,92,30.14,29.84,8,2,23,4.36
2013-12-23,54,46,37,54,44,33,99,91,80,30.43,30.10,9,4,17,1.33
2013-12-24,51,38,29,33,30,27,95,76,44,30.52,30.38,7,3,15,0.00
2013-12-25,47,36,24,35,28,23,97,75,48,30.41,30.31,4,1,7,0.00
2013-12-26,54,43,32,41,34,30,93,71,50,30.38,30.28,4,1,11,0.00
2013-12-27,60,49,38,39,36,34,88,63,40,30.40,30.29,6,1,10,0.00
2013-12-28,51,46,45,47,43,-100,99,93,58,30.28,29.93,6,2,13,2.02
2013-12-29,57,48,41,51,46,40,99,93,71,30.13,29.93,4,1,8,0.03
2013-12-30,56,48,39,52,46,39,100,94,76,30.32,30.12,5,0,7,0.01
2013-12-31,49,44,41,48,41,38,98,90,83,30.42,30.30,4,2,12,0.13
2014-1-1,56,49,42,54,48,41,99,96,89,30.35,30.07,2,0,4,0.10
2014-1-2,58,50,34,56,45,27,99,83,64,30.33,29.92,12,4,25,0.49